Simultaneous Nadir Overpasses (SNOs) Predictions

Prediction of SNOs between FY3D and METOP-A Satellite Orbit:

Table of predicted SNOs for the next 14.0 days since TLE Epoch: 1/11/2021
Index Date (FY3D) Time (FY3D) Lat,Lon (FY3D) SZA (FY3D ) Date (METOP-A) Time (METOP-A) Lat,Lon (METOP-A) SZA (METOP-A ) Distance(km) Time Diff (sec)
1 01/24/2021 22:05:03 -77.11, 10.14 83.13 01/24/2021 22:06:07 -77.07, 14.14 83.46 99.57 64
2 01/24/2021 22:55:43 76.87, 178.43 96.57 01/24/2021 22:56:52 76.83,-179.46 96.36 53.40 69
3 01/24/2021 23:46:25 -76.80, -13.98 83.53 01/24/2021 23:47:36 -76.74, -12.48 83.72 38.83 71
4 01/25/2021 00:37:06 76.60, 154.10 96.22 01/25/2021 00:38:19 76.59, 154.28 96.17 4.95 73
5 01/25/2021 01:27:49 -76.58, -38.49 83.82 01/25/2021 01:29:01 -76.59, -38.39 83.84 2.80 72
6 01/25/2021 02:18:34 76.56, 128.90 96.15 01/25/2021 02:19:41 76.57, 128.87 96.14 1.30 67



Historial Predications of SNOs between FY3D and METOP-A
